Location: Berlin
(42.3812°N, 71.6370°W)
Time: 04:40:46
(UTC+00:00)

Cosmos 1674 Rocket - Pass Details

Date: 15 November 2025
Orbit: 595 x 623 km, 82.5° (Epoch: 09 December)

Event Time Altitude Azimuth Distance (km) Brightness Sun altitude
Rises 10:32:18 0° 195° (SSW) 2,890 7.0 -12.2°
Reaches altitude 10° 10:34:32 10° 198° (SSW) 1,989 6.1 -11.8°
Maximum altitude 10:38:55 62° 280° (W) 702 3.5 -11.0°
Drops below altitude 10° 10:43:18 10° 1° (N) 2,000 6.0 -10.3°
Sets 10:45:34 0° 5° (N) 2,908 6.9 -9.9°
